Wind_Speed
1 5 7 10 14 13 17 22 19 17 14 14 14 21 37 28 29 24 31 34 34 34 34 30 28 31 33 36 35 34 33 32 32
1 6 9 10 12 11 12 15 19 20 18 13 15 18 24 36 33 27 26 29 36 32 30 32 28 36 38 35 37 33 33 35 35
4 2 3 8 9 7 5 10 15 18 20 18 15 16 18 21 30 35 34 35 34 32 35 33 33 38 39 38 37 36 37 39 42
5 4 3 4 7 8 8 8 9 15 18 19 19 18 17 17 18 19 19 23 24 28 29 30 31 34 34 35 35 37 40 41 43
6 6 5 7 9 9 9 11 11 10 13 16 18 19 18 18 19 19 23 23 26 25 28 29 31 32 35 37 40 41 40 43 47
6 6 6 7 7 9 9 11 11 12 14 12 12 13 15 17 19 22 25 27 26 25 25 26 28 30 30 32 33 33 34 36 35
7 7 9 8 9 12 14 14 16 20 20 17 12 8 7 6 4 4 3 6 9 11 13 15 17 21 26 28 32 33 31 35 37
8 10 11 12 13 15 17 17 17 15 12 10 9 8 7 6 4 3 2 1 3 7 11 13 15 17 18 21 24 27 29 34 38
7 9 13 14 14 16 18 19 18 16 14 10 7 5 4 3 2 1 2 3 5 8 10 12 15 18 20 24 26 29 32 36 39
8 8 11 12 12 13 14 14 12 10 9 8 7 7 6 6 6 7 8 10 12 14 16 18 18 19 22 26 30 34 38 43 45
8 9 11 13 12 10 11 11 12 12 11 10 9 6 6 6 6 7 9 13 15 17 20 20 21 21 25 29 35 40 41 43 44
9 11 13 12 11 11 11 12 13 12 10 9 8 7 5 6 8 10 13 15 15 18 20 23 23 26 30 33 36 40 41 41 42
11 15 14 14 13 12 11 12 12 10 9 6 6 3 3 6 9 12 15 16 19 20 21 20 20 22 27 35 39 41 40 39 40
15 20 16 14 14 14 15 13 13 11 6 4 2 3 5 11 12 16 15 15 14 15 23 29 31 36 40 47 49 49 44 43 45
17 23 18 15 15 17 16 15 14 10 6 4 1 8 10 12 15 14 13 11 15 26 31 33 36 42 48 54 58 62 55 56 52
22 21 23 20 18 18 18 17 14 9 7 7 7 5 5 7 12 16 22 26 26 28 28 34 41 48 54 55 62 65 69 67 62
24 23 26 24 22 20 20 20 15 11 10 10 6 9 6 11 16 18 23 28 31 33 33 33 42 51 54 62 65 70 74 76 76
31 25 29 28 25 23 21 20 16 13 12 10 7 7 10 14 19 22 25 30 32 38 34 37 44 51 57 64 69 71 72 76 80
35 27 31 29 26 25 22 20 17 13 10 6 4 8 11 18 21 23 30 35 39 42 35 41 47 52 58 66 70 74 76 77 85
29 27 30 28 24 22 21 19 15 13 12 10 13 14 21 21 23 26 30 35 36 37 39 46 49 51 58 68 73 76 80 80 89
Wind_Direction
275 207 201 211 221 212 197 201 193 191 194 175 178 177 186 183 180 193 202 208 216 228 235 243 250 262 259 262 261 268 271 275 276
33 137 162 195 207 207 210 207 203 196 197 198 179 187 194 210 216 215 210 221 233 242 247 248 244 241 256 261 265 271 276 276 281
266 216 146 133 127 136 163 205 212 207 204 205 204 196 199 206 217 225 230 231 233 235 238 246 252 250 258 263 266 270 272 274 275
265 254 207 170 131 116 103 122 179 208 215 217 217 213 213 213 218 223 231 234 238 241 243 249 255 259 263 265 266 270 275 278 280
246 246 215 199 153 137 125 115 116 156 198 214 219 224 229 232 231 236 237 240 241 245 251 258 262 265 267 271 274 277 283 284 282
228 219 217 211 176 143 135 128 126 136 145 167 198 219 232 239 243 247 249 253 256 259 263 267 270 275 278 278 282 287 292 296 297
202 203 194 187 180 153 144 141 136 126 122 124 129 143 161 175 197 203 205 231 245 257 265 275 285 288 288 288 287 292 294 293 291
186 179 173 174 162 147 141 145 148 151 151 154 152 152 142 129 108 122 144 225 269 274 276 289 295 300 298 295 294 296 300 299 297
199 183 178 173 157 148 139 140 142 142 141 137 125 119 124 123 114 54 10 349 322 319 324 320 314 308 307 310 307 305 300 296 297
200 209 195 187 180 164 146 141 139 129 122 122 124 114 101 78 56 29 15 360 348 338 333 331 324 322 315 311 308 306 307 304 301
211 217 220 213 195 160 138 132 126 130 136 132 122 113 91 72 51 29 8 358 352 346 340 329 323 316 313 311 307 309 308 306 305
215 224 215 203 174 153 141 135 142 145 140 132 121 106 97 51 32 14 358 349 335 329 327 327 321 326 325 320 319 312 311 309 307
212 214 207 196 171 154 148 153 154 155 156 143 119 105 355 9 5 349 340 332 331 339 348 353 347 336 343 339 340 336 331 320 321
216 224 205 188 170 160 162 167 168 163 168 184 247 301 344 333 324 329 327 344 5 18 6 355 355 358 356 355 354 352 343 335 331
231 230 201 185 180 175 179 181 183 183 158 188 304 326 314 314 315 319 333 344 345 344 347 353 355 357 358 358 357 357 352 350 340
233 237 211 195 200 200 194 195 194 199 229 271 291 331 21 24 8 360 352 346 345 343 338 340 345 352 353 354 355 355 355 353 351
242 237 233 212 209 214 213 197 196 221 249 263 273 315 297 328 333 342 343 344 344 350 346 348 349 351 351 354 351 350 350 351 353
256 244 238 228 214 210 209 211 211 216 236 255 276 323 332 331 331 332 338 343 343 346 343 345 347 347 347 349 348 346 347 347 349
250 242 239 228 215 204 202 207 223 242 230 231 250 300 328 325 324 331 340 338 340 344 343 343 342 339 343 345 343 344 344 344 346
237 234 222 212 205 206 218 228 239 248 263 237 264 286 311 329 329 331 336 337 342 341 339 339 338 338 340 340 341 341 342 342 343
Height
10950 10950 10949 10950 10951 10953 10955 10957 10959 10962 10965 10968 10970 10973 10977 10980 10984 10987 10991 10996 11002 11007 11012 11014 11017 11018 11014 11010 11006 11006 11005 11004 11003
10956 10954 10952 10951 10951 10952 10953 10955 10958 10961 10965 10968 10971 10974 10978 10980 10983 10987 10990 10996 11000 11003 11004 11010 11021 11004 11012 11006 11003 11002 11000 10999 10998
10959 10956 10955 10953 10952 10952 10953 10954 10955 10959 10963 10967 10970 10974 10977 10980 10983 10985 10988 10994 10996 10997 10996 10999 11002 11002 11001 10999 10997 10995 10993 10992 10991
10960 10958 10956 10955 10954 10954 10954 10954 10955 10957 10961 10965 10968 10972 10975 10978 10981 10985 10989 10990 10990 10991 10991 10992 10993 10993 10992 10991 10991 10991 10989 10986 10983
10960 10959 10958 10958 10956 10955 10957 10957 10957 10958 10960 10963 10967 10970 10973 10976 10980 10984 10984 10985 10985 10988 10988 10989 10988 10988 10987 10986 10985 10985 10982 10979 10975
10962 10961 10961 10961 10958 10957 10958 10959 10960 10960 10960 10963 10967 10970 10973 10975 10976 10977 10978 10979 10982 10984 10985 10985 10985 10984 10983 10981 10978 10976 10973 10970 10965
10963 10962 10962 10963 10962 10959 10959 10961 10963 10964 10966 10967 10969 10971 10972 10973 10974 10975 10976 10977 10978 10979 10980 10980 10979 10978 10977 10975 10973 10970 10965 10961 10957
10964 10963 10964 10965 10964 10963 10961 10963 10965 10967 10968 10970 10971 10972 10973 10974 10974 10975 10975 10976 10977 10977 10977 10977 10976 10974 10972 10969 10966 10962 10958 10954 10948
10964 10964 10965 10966 10966 10965 10964 10966 10967 10968 10969 10970 10971 10972 10974 10974 10975 10975 10975 10976 10976 10977 10977 10975 10973 10970 10966 10963 10959 10955 10950 10945 10940
10961 10964 10965 10966 10966 10966 10965 10966 10967 10968 10969 10970 10972 10973 10974 10975 10975 10975 10975 10975 10975 10974 10973 10971 10968 10966 10962 10958 10954 10949 10943 10936 10931
10960 10962 10964 10965 10965 10965 10964 10965 10967 10968 10969 10971 10972 10974 10975 10975 10975 10975 10975 10975 10975 10973 10971 10969 10966 10963 10960 10955 10947 10941 10933 10925 10919
10960 10962 10963 10963 10963 10963 10964 10966 10967 10969 10971 10972 10974 10974 10974 10975 10975 10975 10976 10975 10973 10971 10969 10967 10964 10961 10955 10949 10941 10932 10923 10915 10907
10961 10962 10962 10962 10961 10963 10965 10966 10968 10970 10972 10973 10974 10974 10974 10975 10975 10975 10974 10972 10971 10969 10967 10963 10959 10954 10949 10943 10933 10924 10915 10906 10897
10960 10961 10960 10961 10960 10962 10965 10967 10969 10971 10972 10973 10973 10974 10974 10974 10973 10972 10971 10970 10967 10965 10962 10958 10953 10948 10941 10934 10926 10916 10908 10900 10891
10957 10958 10957 10959 10960 10961 10963 10966 10968 10970 10971 10971 10972 10973 10972 10971 10969 10969 10968 10966 10964 10960 10957 10952 10947 10941 10935 10927 10918 10910 10901 10892 10882
10953 10955 10954 10955 10958 10960 10960 10962 10965 10967 10969 10970 10970 10970 10969 10969 10968 10967 10966 10963 10959 10955 10952 10947 10941 10933 10925 10918 10910 10902 10892 10883 10873
10949 10950 10953 10953 10955 10957 10958 10958 10961 10964 10966 10967 10967 10967 10967 10966 10965 10963 10960 10957 10953 10949 10944 10939 10934 10927 10919 10912 10903 10892 10883 10873 10863
10944 10946 10948 10950 10951 10952 10955 10958 10958 10958 10961 10963 10964 10964 10963 10962 10960 10958 10954 10951 10947 10942 10937 10932 10926 10920 10911 10903 10896 10888 10879 10868 10858
10939 10941 10944 10947 10948 10949 10951 10953 10956 10957 10957 10958 10959 10959 10958 10956 10954 10952 10949 10946 10941 10936 10931 10926 10919 10913 10905 10896 10888 10879 10870 10859 10848
10934 10936 10939 10942 10944 10947 10949 10951 10953 10954 10956 10956 10953 10953 10952 10951 10948 10945 10942 10938 10934 10929 10924 10919 10911 10904 10896 10887 10881 10871 10860 10848 10836